Regional Weather Roundup
Issued by NWS Newport/Morehead, NC

Current Version | Previous Version | Text Only | Print | Product List | Glossary On
Versions: 1 2 3 4 5 6 7 8 9 10 11 12 13 14 15 16 17 18 19 20 21 22 23 24 25 26 27 28 29 30 31 32 33 34 35 36 37 38 39 40 41 42 43 44 45 46 47 48 49 50
201 ASUS42 KMHX 051512 RWRMHX WEATHER ROUNDUP FOR EASTERN NORTH CAROLINA NATIONAL WEATHER SERVICE NEWPORT/MOREHEAD CITY NC 1000 AM EST FRI FEB 05 2016 NOTE: "FAIR" INDICATES FEW OR NO CLOUDS BELOW 12,000 FEET WITH NO SIGNIFICANT WEATHER AND/OR OBSTRUCTIONS TO VISIBILITY NCZ015>017-031-032-045>047-102-103-051600- NORTH COAST CITY SKY/WX TMP DP RH WIND PRES REMARKS EDENTON CLOUDY 41 36 81 N20G29 30.24R ELIZABETH CITY CLOUDY 38 34 85 NW17G35 30.21R KITTY HAWK DRIZZLE 37 36 95 NW13G28 30.15R MANTEO CLOUDY 37 36 96 N15G26 30.17R $$ NCZ045>047-081-094-103-104-051600- CENTRAL COAST CITY SKY/WX TMP DP RH WIND PRES REMARKS FRISCO CLOUDY N/A N/A N/A N12G26 30.17R SWANQUARTER N/A 39 N/A N/A NW25 30.21R $$ NCZ095-097-098-100-101-051600- SOUTHERN COAST CITY SKY/WX TMP DP RH WIND PRES REMARKS BEAUFORT CLOUDY 41 35 79 N22G36 30.24R CEDAR ISLAND N/A 41 N/A N/A NW26G43 30.27R JACKSONVILLE CLOUDY 44 33 65 N21G31 30.27R PINEY ISLAND NOT AVBL WILMINGTON CLOUDY 46 36 68 N16G23 30.27R $$ NCZ011>013-027>030-043-044-078>080-089-090>093-098-051600- COASTAL PLAIN CITY SKY/WX TMP DP RH WIND PRES REMARKS AHOSKIE SUNNY 40 31 71 NW10G17 30.26R CLINTON PTSUNNY 42 35 76 NW9G17 30.31R ELIZABETHTOWN MOSUNNY 43 32 65 N6G20 30.30R GOLDSBORO CLOUDY 43 39 87 NW13G24 30.27R GREENVILLE CLOUDY 41 34 75 N12G17 30.27R HAVELOCK CLOUDY 42 34 73 N25G35 30.25R KENANSVILLE N/A 42 32 67 NW13G20 30.30R KINSTON CLOUDY 43 34 70 N17 30.28R NEW BERN CLOUDY 42 34 73 N22G29 30.26R RICHLANDS CLOUDY 43 28 56 NW12G18 30.27R ROCKY MOUNT PTSUNNY 41 34 76 N12G18 30.29R WASHINGTON CLOUDY 41 32 69 N12G23 30.26R WHITEVILLE SUNNY 44 31 61 N9G17 30.29R $$ AMZ130-135-150-152-154-156-158-170-250-252-270-ANZ085-086-088-633-658-670-051600- MARINE OBSERVATIONS STATION/POSITION TIME TEMP WIND PRES WAVE SWELL AIR SEA DIR/SP/G HT/PER HT/PER (UTC) (F) (DEG/KT/KT) (MB) (FT/S) (FT/S) CHESAPEAKE LIGHT 1500 39 350/ 32/ 36 1021.8 64 E VA BEACH 1450 41 53 350/ 33/ 41 1017.3 14/ 8 DUCK 1400 37 46 330/ 28/ 32 1019.5 2 E DUCK 1411 45 N/A 8/ 7 OREGON INLET 1400 38 49 320/ 22/ 30 1019.8 13E OREGON INLT 1500 47 N/A 12/ 8 2/11 HATTERAS CG 1400 42 54 330/ 32/ 37 1019.6 DIAMOND BUOY 1450 69 340/ 29/ 37 1020.4 9/ 7 CAPE LOOKOUT NOT AVBL BEAUFORT LAB 1400 41 54 340/ 17/ 23 1021.2 30 SE NEW RVR IN 1408 41 65 1020.8 30 SE NEW RVR IN 1425 65 N/A 8/ 6 27 SE WRIGHTSVLE NOT AVBL 5 SE WRIGHTSVLE 1408 45 54 350/ 21/ 31 1024.3 225 S CAPE HAT 1450 62 69 310/ 29/ 35 N/A 9/ 7 41 SE CHARLESTON 1450 50 68 10/ 25/ 31 1024.0 9/ 6 2/10 $$

USA.gov is the U.S. government's official web portal to all federal, state and local government web resources and services.